This is the latest recevied weather packets stored in our database for station/object W5ALL-WX. If no packets are shown the sender has not sent any weather packets the latest 10 day(s).
| Time | Temp. | Humidity | Pressure | Rain* | Wind** | Luminosity | Snow |
|---|---|---|---|---|---|---|---|
| 1777682101 | 16.11° C | 60% | 1015.3 hPa | 0 mm | - | - | - |
| 1777681801 | 16.11° C | 57% | 1015.4 hPa | 0 mm | - | - | - |
| 1777681501 | 16.11° C | 56% | 1015.3 hPa | 0 mm | - | - | - |
| 1777681201 | 16.67° C | 55% | 1015.3 hPa | 0 mm | - | - | - |
| 1777680901 | 16.67° C | 51% | 1015.2 hPa | 0 mm | - | - | - |
| 1777680601 | 16.67° C | 51% | 1015 hPa | 0 mm | - | - | - |
| 1777680301 | 17.22° C | 49% | 1014.9 hPa | 0 mm | - | - | - |
| 1777680001 | 17.22° C | 49% | 1014.9 hPa | 0 mm | - | - | - |
| 1777679701 | 17.22° C | 49% | 1014.8 hPa | 0 mm | - | - | - |
| 1777679401 | 17.22° C | 50% | 1014.7 hPa | 0 mm | - | - | - |
| 1777679101 | 17.22° C | 51% | 1014.7 hPa | 0 mm | - | - | - |
| 1777678801 | 17.78° C | 50% | 1014.7 hPa | 0 mm | - | - | - |
| 1777678501 | 17.78° C | 50% | 1014.6 hPa | 0 mm | - | - | - |
| 1777678201 | 17.78° C | 51% | 1014.5 hPa | 0 mm | - | - | - |
| 1777677901 | 17.22° C | 51% | 1014.5 hPa | 0 mm | - | - | - |
| 1777677601 | 17.22° C | 50% | 1014.5 hPa | 0 mm | - | - | - |
| 1777677301 | 17.22° C | 51% | 1014.2 hPa | 0 mm | - | - | - |
| 1777677001 | 17.22° C | 56% | 1014.1 hPa | 0 mm | - | - | - |
| 1777676701 | 17.22° C | 54% | 1014.1 hPa | 0 mm | - | - | - |
| 1777676401 | 17.22° C | 56% | 1014.1 hPa | 0 mm | - | - | - |
| 1777676101 | 17.22° C | 58% | 1014.1 hPa | 0 mm | - | - | - |
| 1777675801 | 17.78° C | 60% | 1014 hPa | 0 mm | - | - | - |
| 1777675501 | 17.78° C | 60% | 1014 hPa | 0 mm | - | - | - |
| 1777675201 | 17.78° C | 60% | 1014.1 hPa | 0 mm | - | - | - |
| 1777674901 | 17.78° C | 60% | 1014 hPa | 0 mm | - | - | - |
* Rain latest hour (hover to see other rain measurements)
** Current wind speed in m/s (hover to see current wind gust speed)